When you browse on this site, cookies collect data to enhance your experience and personalize the content and advertising you see.
Visit our Privacy Policy to learn more. By continuing to use the site, you agree to this use of cookies and data.
  • In Schweiz
  • Länderverzeichnis
  • Für 7 Tage
  • Wassertemperatur
  • Satellitenkarten
  • Wetterkarte
  • Widgets
  • user-avatar
    Anmelden

    Stündliche Wetter Makapa

    Heute, 18 November, Sonntag

    Zeit Temperatur Niederschläge Wind Luftdruck Luftfeuchtigkeit
    00:00 +27°C° 0 mm 3 m/S 757 mmHg 81%
    01:00 +27°C° 0 mm 2 m/S 757 mmHg 83%
    02:00 +26°C° 0 mm 2 m/S 757 mmHg 84%
    03:00 +26°C° 0 mm 2 m/S 757 mmHg 86%
    04:00 +26°C° 0 mm 2 m/S 757 mmHg 87%
    05:00 +26°C° 0 mm 2 m/S 757 mmHg 89%
    06:00 +26°C° 0 mm 2 m/S 757 mmHg 90%
    07:00 +28°C° 0 mm 2 m/S 757 mmHg 80%
    08:00 +30°C° 0 mm 2 m/S 758 mmHg 71%
    09:00 +33°C° 0 mm 3 m/S 758 mmHg 61%
    10:00 +35°C° 0 mm 3 m/S 758 mmHg 53%
    11:00 +37°C° 0 mm 3 m/S 758 mmHg 45%
    12:00 +39°C° 0 mm 3 m/S 758 mmHg 36%
    13:00 +39°C° 0 mm 3 m/S 757 mmHg 36%
    14:00 +39°C° 0 mm 3 m/S 756 mmHg 35%
    15:00 +40°C° 0 mm 4 m/S 755 mmHg 34%
    16:00 +38°C° 0 mm 4 m/S 755 mmHg 39%
    17:00 +36°C° 0 mm 3 m/S 755 mmHg 44%
    18:00 +35°C° 0 mm 3 m/S 755 mmHg 49%
    19:00 +33°C° 0.2 mm 3 m/S 756 mmHg 56%
    20:00 +32°C° 0.2 mm 4 m/S 756 mmHg 63%
    21:00 +30°C° 0.2 mm 4 m/S 757 mmHg 70%
    22:00 +29°C° 0.1 mm 4 m/S 757 mmHg 74%
    23:00 +29°C° 0.1 mm 3 m/S 758 mmHg 78%

    Morgen, 19 November, Montag

    Zeit Temperatur Niederschläge Wind Luftdruck Luftfeuchtigkeit
    00:00 +28°C° 0.1 mm 3 m/S 758 mmHg 82%
    01:00 +28°C° 0 mm 3 m/S 757 mmHg 84%
    02:00 +27°C° 0 mm 3 m/S 757 mmHg 87%
    03:00 +27°C° 0 mm 3 m/S 756 mmHg 89%
    04:00 +27°C° 0 mm 2 m/S 756 mmHg 90%
    05:00 +27°C° 0 mm 2 m/S 756 mmHg 91%
    06:00 +26°C° 0 mm 2 m/S 756 mmHg 93%
    07:00 +28°C° 0.1 mm 2 m/S 757 mmHg 84%
    08:00 +30°C° 0.1 mm 2 m/S 757 mmHg 74%
    09:00 +33°C° 0.1 mm 3 m/S 758 mmHg 65%
    10:00 +34°C° 0.8 mm 3 m/S 758 mmHg 62%
    11:00 +35°C° 0.8 mm 3 m/S 757 mmHg 58%
    12:00 +36°C° 0.8 mm 3 m/S 757 mmHg 55%
    13:00 +36°C° 0.5 mm 3 m/S 757 mmHg 53%
    14:00 +36°C° 0.5 mm 3 m/S 756 mmHg 52%
    15:00 +36°C° 0.5 mm 3 m/S 755 mmHg 50%
    16:00 +35°C° 0 mm 3 m/S 755 mmHg 53%
    17:00 +35°C° 0 mm 3 m/S 755 mmHg 56%
    18:00 +34°C° 0 mm 3 m/S 755 mmHg 59%
    19:00 +33°C° 0 mm 3 m/S 756 mmHg 63%
    20:00 +31°C° 0 mm 3 m/S 757 mmHg 68%
    21:00 +29°C° 0 mm 4 m/S 757 mmHg 73%
    22:00 +29°C° 0 mm 3 m/S 758 mmHg 77%
    23:00 +28°C° 0 mm 3 m/S 758 mmHg 80%

    übermorgen, 20 November, Dienstag

    Zeit Temperatur Niederschläge Wind Luftdruck Luftfeuchtigkeit
    00:00 +28°C° 0 mm 3 m/S 758 mmHg 83%
    01:00 +27°C° 0 mm 3 m/S 758 mmHg 85%
    02:00 +27°C° 0 mm 2 m/S 757 mmHg 87%
    03:00 +27°C° 0 mm 2 m/S 756 mmHg 88%
    04:00 +27°C° 0 mm 2 m/S 756 mmHg 89%
    05:00 +26°C° 0 mm 2 m/S 757 mmHg 90%
    06:00 +26°C° 0 mm 2 m/S 757 mmHg 90%
    07:00 +28°C° 0 mm 2 m/S 757 mmHg 81%
    08:00 +30°C° 0 mm 3 m/S 758 mmHg 71%
    09:00 +33°C° 0 mm 3 m/S 758 mmHg 62%
    10:00 +35°C° 0 mm 3 m/S 758 mmHg 55%
    11:00 +37°C° 0 mm 3 m/S 758 mmHg 49%
    12:00 +38°C° 0 mm 3 m/S 758 mmHg 43%
    13:00 +38°C° 0 mm 4 m/S 757 mmHg 43%
    14:00 +38°C° 0 mm 4 m/S 756 mmHg 43%
    15:00 +37°C° 0 mm 4 m/S 755 mmHg 43%
    16:00 +36°C° 0.1 mm 4 m/S 755 mmHg 48%
    17:00 +35°C° 0.1 mm 3 m/S 755 mmHg 52%
    18:00 +34°C° 0.1 mm 3 m/S 755 mmHg 57%
    19:00 +33°C° 0 mm 3 m/S 756 mmHg 62%
    20:00 +31°C° 0 mm 3 m/S 757 mmHg 67%
    21:00 +30°C° 0 mm 3 m/S 757 mmHg 72%
    22:00 +29°C° 0.1 mm 3 m/S 757 mmHg 76%
    23:00 +28°C° 0.1 mm 3 m/S 757 mmHg 79%

    21 November, Mittwoch

    Zeit Temperatur Niederschläge Wind Luftdruck Luftfeuchtigkeit
    00:00 +28°C° 0.1 mm 3 m/S 757 mmHg 83%
    01:00 +28°C° 0 mm 3 m/S 757 mmHg 85%
    02:00 +27°C° 0 mm 3 m/S 756 mmHg 87%
    03:00 +27°C° 0 mm 2 m/S 756 mmHg 89%
    04:00 +27°C° 0 mm 2 m/S 756 mmHg 90%
    05:00 +26°C° 0 mm 2 m/S 757 mmHg 92%
    06:00 +26°C° 0 mm 2 m/S 757 mmHg 94%
    07:00 +28°C° 0 mm 2 m/S 757 mmHg 84%
    08:00 +30°C° 0 mm 3 m/S 758 mmHg 74%
    09:00 +33°C° 0 mm 3 m/S 758 mmHg 64%
    10:00 +35°C° 0 mm 3 m/S 758 mmHg 58%
    11:00 +36°C° 0 mm 3 m/S 757 mmHg 51%
    12:00 +38°C° 0 mm 3 m/S 757 mmHg 45%
    13:00 +37°C° 0.2 mm 3 m/S 756 mmHg 46%
    14:00 +37°C° 0.2 mm 4 m/S 755 mmHg 47%
    15:00 +36°C° 0.2 mm 4 m/S 754 mmHg 48%
    16:00 +35°C° 0.2 mm 4 m/S 755 mmHg 51%
    17:00 +35°C° 0.2 mm 4 m/S 755 mmHg 54%
    18:00 +34°C° 0.2 mm 4 m/S 755 mmHg 58%
    19:00 +31°C° 0 mm 3 m/S 756 mmHg 63%
    20:00 +30°C° 0 mm 3 m/S 756 mmHg 69%
    21:00 +29°C° 0 mm 3 m/S 757 mmHg 75%
    22:00 +29°C° 0.1 mm 3 m/S 757 mmHg 77%
    23:00 +28°C° 0.1 mm 3 m/S 757 mmHg 80%

    22 November, Donnerstag

    Zeit Temperatur Niederschläge Wind Luftdruck Luftfeuchtigkeit
    00:00 +28°C° 0.1 mm 3 m/S 757 mmHg 83%
    01:00 +27°C° 0 mm 2 m/S 756 mmHg 85%
    02:00 +27°C° 0 mm 2 m/S 756 mmHg 87%
    03:00 +27°C° 0 mm 2 m/S 755 mmHg 89%
    04:00 +26°C° 0 mm 2 m/S 756 mmHg 90%
    05:00 +26°C° 0 mm 2 m/S 756 mmHg 91%
    06:00 +26°C° 0 mm 2 m/S 756 mmHg 92%
    07:00 +28°C° 0 mm 2 m/S 757 mmHg 83%
    08:00 +30°C° 0 mm 3 m/S 757 mmHg 74%
    09:00 +33°C° 0 mm 3 m/S 758 mmHg 65%
    10:00 +34°C° 0.4 mm 3 m/S 757 mmHg 63%
    11:00 +35°C° 0.4 mm 4 m/S 757 mmHg 60%
    12:00 +35°C° 0.4 mm 4 m/S 756 mmHg 58%
    13:00 +35°C° 0.3 mm 4 m/S 755 mmHg 57%
    14:00 +36°C° 0.3 mm 4 m/S 755 mmHg 56%
    15:00 +36°C° 0.3 mm 4 m/S 754 mmHg 54%
    16:00 +35°C° 0.1 mm 4 m/S 754 mmHg 57%
    17:00 +34°C° 0.1 mm 3 m/S 754 mmHg 60%
    18:00 +33°C° 0.1 mm 3 m/S 755 mmHg 63%
    19:00 +31°C° 0.3 mm 3 m/S 755 mmHg 68%
    20:00 +30°C° 0.3 mm 3 m/S 756 mmHg 74%
    21:00 +28°C° 0.3 mm 3 m/S 757 mmHg 79%
    22:00 +28°C° 0.3 mm 3 m/S 757 mmHg 83%
    23:00 +27°C° 0.3 mm 3 m/S 757 mmHg 86%

    23 November, Freitag

    Zeit Temperatur Niederschläge Wind Luftdruck Luftfeuchtigkeit
    00:00 +27°C° 0.3 mm 2 m/S 757 mmHg 89%
    01:00 +27°C° 0.2 mm 2 m/S 756 mmHg 91%
    02:00 +26°C° 0.2 mm 2 m/S 756 mmHg 92%
    03:00 +26°C° 0.2 mm 3 m/S 755 mmHg 94%
    04:00 +26°C° 0 mm 2 m/S 755 mmHg 95%
    05:00 +26°C° 0 mm 2 m/S 756 mmHg 95%
    06:00 +26°C° 0 mm 2 m/S 756 mmHg 96%
    07:00 +28°C° 0 mm 2 m/S 756 mmHg 87%
    08:00 +29°C° 0 mm 3 m/S 757 mmHg 78%
    09:00 +31°C° 0 mm 3 m/S 757 mmHg 69%
    10:00 +33°C° 0.2 mm 3 m/S 757 mmHg 65%
    11:00 +34°C° 0.2 mm 3 m/S 756 mmHg 61%
    12:00 +35°C° 0.2 mm 4 m/S 756 mmHg 57%
    13:00 +35°C° 0.9 mm 4 m/S 755 mmHg 59%
    14:00 +35°C° 0.9 mm 4 m/S 754 mmHg 61%
    15:00 +34°C° 0.9 mm 4 m/S 754 mmHg 63%
    16:00 +33°C° 0.6 mm 3 m/S 754 mmHg 69%
    17:00 +31°C° 0.6 mm 3 m/S 754 mmHg 74%
    18:00 +29°C° 0.6 mm 3 m/S 754 mmHg 80%
    19:00 +29°C° 0.4 mm 3 m/S 755 mmHg 83%
    20:00 +28°C° 0.4 mm 3 m/S 756 mmHg 87%
    21:00 +27°C° 0.4 mm 3 m/S 756 mmHg 90%
    22:00 +27°C° 0.7 mm 2 m/S 756 mmHg 92%
    23:00 +27°C° 0.7 mm 2 m/S 756 mmHg 94%
    Mehr zeigen